Volk, WI

6:39 PM CDT on August 19, 2019 (GMT -0500)
Volk

Weather History for KVOK - July, 2019

Change the Weather History Date:

Wednesday, July 24, 2019

  Actual Average Record
Temperature  
Mean Temperature 68 °F -  
Max Temperature 84 °F 78 °F 95 °F (1999)
Min Temperature 51 °F 63 °F 39 °F (2013)
Cooling Degree Days 2    
Growing Degree Days 18 (Base 50)    
Moisture  
Dew Point 58 °F    
Average Humidity 89    
Maximum Humidity 100    
Minimum Humidity 48    
Precipitation  
Precipitation 0.00 in - - ()
Sea Level Pressure  
Sea Level Pressure 30.16 in    
Wind  
Wind Speed 1 mph (West)    
Max Wind Speed 9 mph    
Max Gust Speed -    
Visibility 5 miles    
Events Fog , Thunderstorm    
Averages and records for this station are not official NWS values.
T = Trace of Precipitation, MM = Missing Value Source: NWS Daily Summary

Daily Weather History Graph

Daily Weather History Graph

Search for Another Location

Airport or City:

Astronomy

Jul. 24, 2019 Rise Set
Actual Time 5:40 AM CDT 8:33 PM CDT
Civil Twilight 5:06 AM CDT 9:07 PM CDT
Nautical Twilight 4:23 AM CDT 9:50 PM CDT
Astronomical Twilight 3:33 AM CDT 10:40 PM CDT
Moon 12:08 AM CDT (7/24) 1:06 PM CDT (7/24)
Length of Visible Light 16h 00m
Length of Day
14h 52m
Waning Gibbous, 53% of the Moon is Illuminated
Jul 24
Waning Gibbous
Jul 24
Last Quarter
Jul 31
New
Aug 7
First Quarter
Aug 15
Full

Hourly Weather History & Observations

Time (CDT) Temp. Heat Index Dew Point Humidity Pressure Visibility Wind Dir Wind Speed Gust Speed Precip Events Conditions
12:56 AM 56.7 °F - 56.7 °F 100% 30.15 in 10.0 mi Calm Calm - N/A   Clear
1:56 AM 57.0 °F - 57.0 °F 100% 30.15 in 10.0 mi Calm Calm - N/A   Clear
2:56 AM 55.9 °F - 55.9 °F 100% 30.15 in 8.0 mi Calm Calm - N/A   Partly Cloudy
3:36 AM 53.6 °F - 53.6 °F 100% 30.16 in 1.2 mi Calm Calm - N/A   Clear
3:46 AM 55.4 °F - 55.4 °F 100% 30.15 in 1.1 mi Calm Calm - N/A   Clear
3:51 AM 55.4 °F - 55.4 °F 100% 30.15 in 1.4 mi Calm Calm - N/A   Clear
3:56 AM 54.9 °F - 54.9 °F 100% 30.15 in 6.0 mi Calm Calm - N/A   Clear
4:26 AM 53.6 °F - 53.6 °F 100% 30.16 in 1.5 mi Calm Calm - N/A   Clear
4:31 AM 53.6 °F - 53.6 °F 100% 30.17 in 1.2 mi Calm Calm - N/A   Clear
4:36 AM 53.6 °F - 53.6 °F 100% 30.17 in 1.5 mi Calm Calm - N/A   Clear
4:41 AM 53.6 °F - 53.6 °F 100% 30.17 in 1.0 mi Calm Calm - N/A   Clear
4:46 AM 53.6 °F - 53.6 °F 100% 30.17 in 0.9 mi Calm Calm - N/A   Clear
4:51 AM 53.6 °F - 53.6 °F 100% 30.17 in 0.8 mi Calm Calm - N/A   Clear
4:56 AM 54.1 °F - 54.1 °F 100% 30.16 in 0.8 mi Calm Calm - N/A   Clear
5:01 AM 53.6 °F - 53.6 °F 100% 30.17 in 2.5 mi Calm Calm - N/A   Clear
5:06 AM 53.6 °F - 53.6 °F 100% 30.17 in 4.0 mi Calm Calm - N/A   Clear
5:11 AM 53.6 °F - 53.6 °F 100% 30.17 in 2.2 mi West 3.5 mph - N/A   Clear
5:16 AM 51.8 °F - 51.8 °F 100% 30.17 in 0.5 mi Calm Calm - N/A Fog Fog
5:31 AM 51.8 °F - 51.8 °F 100% 30.17 in 0.2 mi Calm Calm - N/A Fog Fog
5:51 AM 51.8 °F - 51.8 °F 100% 30.18 in 0.2 mi Calm Calm - N/A Fog Fog
5:56 AM 52.3 °F - 52.3 °F 100% 30.18 in 0.2 mi Calm Calm - N/A Fog Fog
6:01 AM 51.8 °F - 51.8 °F 100% 30.18 in 0.6 mi Calm Calm - N/A   Clear
6:06 AM 51.8 °F - 51.8 °F 100% 30.18 in 1.9 mi Calm Calm - N/A   Clear
6:11 AM 51.8 °F - 51.8 °F 100% 30.18 in 4.0 mi Calm Calm - N/A   Clear
6:21 AM 53.6 °F - 53.6 °F 100% 30.19 in 2.2 mi Calm Calm - N/A   Clear
6:26 AM 53.6 °F - 53.6 °F 100% 30.19 in 0.2 mi Calm Calm - N/A Fog Fog
6:31 AM 53.6 °F - 53.6 °F 100% 30.19 in 0.5 mi Calm Calm - N/A Fog Fog
6:56 AM 55.4 °F - 55.4 °F 100% 30.19 in 7.0 mi Calm Calm - N/A   Partly Cloudy
7:56 AM 64.4 °F - 64.4 °F 100% 30.20 in 10.0 mi Calm Calm - N/A   Partly Cloudy
8:56 AM 69.8 °F - 66.2 °F 88% 30.20 in 10.0 mi WNW 4.6 mph - N/A   Clear
9:56 AM 73.4 °F - 66.2 °F 78% 30.19 in 10.0 mi WNW 3.5 mph - N/A   Clear
10:56 AM 77.0 °F - 64.4 °F 65% 30.19 in 10.0 mi Calm Calm - N/A   Clear
11:56 AM 78.8 °F - 64.4 °F 61% 30.17 in 10.0 mi WNW 4.6 mph - N/A   Partly Cloudy
12:56 PM 80.6 °F 81.8 °F 62.6 °F 54% 30.15 in 10.0 mi West 5.8 mph - N/A   Scattered Clouds
1:56 PM 82.4 °F 83.4 °F 62.6 °F 51% 30.15 in 10.0 mi WNW 3.5 mph - N/A   Scattered Clouds
2:56 PM 84.2 °F 85.0 °F 62.6 °F 48% 30.14 in 10.0 mi WSW 5.8 mph - N/A   Mostly Cloudy
3:56 PM 84.2 °F 85.0 °F 62.6 °F 48% 30.12 in 10.0 mi West 8.1 mph - N/A   Mostly Cloudy
4:56 PM 82.4 °F 83.9 °F 64.4 °F 54% 30.12 in 10.0 mi West 6.9 mph - N/A   Scattered Clouds
5:56 PM 78.8 °F - 66.2 °F 65% 30.12 in 10.0 mi West 6.9 mph - N/A   Scattered Clouds
6:37 PM 78.8 °F - 66.2 °F 65% 30.11 in 10.0 mi West 9.2 mph - N/A Thunderstorm Thunderstorm
6:56 PM 80.6 °F 82.7 °F 66.2 °F 61% 30.12 in 10.0 mi West 8.1 mph - N/A Thunderstorm Thunderstorm
7:32 PM 77.0 °F - 66.2 °F 69% 30.12 in 10.0 mi WNW 3.5 mph - N/A   Mostly Cloudy
7:56 PM 75.2 °F - 68.0 °F 78% 30.12 in 10.0 mi Calm Calm - N/A   Scattered Clouds
8:56 PM 68.0 °F - 68.0 °F 100% 30.12 in 10.0 mi Calm Calm - N/A   Scattered Clouds
9:56 PM 64.4 °F - 64.4 °F 100% 30.13 in 10.0 mi Calm Calm - N/A   Scattered Clouds
10:56 PM 62.6 °F - 62.6 °F 100% 30.12 in 10.0 mi Calm Calm - N/A   Clear
11:56 PM 61.0 °F - 61.0 °F 100% 30.12 in 4.0 mi Calm Calm - N/A   Clear